Location: Asheville, NC
(35.6000°N, 82.5500°W)
Time: 23:58:11
(UTC-05:00)

CUTE 1.7 + AOD 2 - Pass Details

Date: 04 January 2018
Orbit: 594 x 613 km, 97.6° (Epoch: 18 January)

Event Time Altitude Azimuth Distance (km) Brightness Sun altitude
Rises 06:18:40 0° 36° (NE) 2,858 ? -16.2°
Reaches altitude 10° 06:21:59 10° 64° (ENE) 1,944 ? -15.5°
Maximum altitude 06:23:58 13° 92° (E) 1,746 ? -15.1°
Drops below altitude 10° 06:25:56 10° 120° (ESE) 1,932 ? -14.8°
Sets 06:29:12 0° 149° (SSE) 2,824 ? -14.1°
